Overview Statistics Trail Chart Weather Telemetry Raw packets
 

This is the latest recevied weather packets stored in our database for station/object AD0YN. If no packets are shown the sender has not sent any weather packets the latest 10 day(s).

<< 1 2 3 4 >>
Time Temp. Humidity Pressure Rain* Wind** Luminosity Snow
1788575538 26.67° C 72% 1012.9 hPa 0 mm - 0 W/m² -
1788575237 26.67° C 71% 1012.8 hPa 0 mm - 0 W/m² -
1788574933 26.67° C 71% 1012.8 hPa 0 mm - 0 W/m² -
1788574633 27.22° C 70% 1012.8 hPa 0 mm - 0 W/m² -
1788574328 27.22° C 69% 1012.8 hPa 0 mm - 0 W/m² -
1788574023 27.78° C 69% 1012.6 hPa 0 mm - 0 W/m² -
1788573718 28.33° C 67% 1012.7 hPa 0 mm - 0 W/m² -
1788573417 28.89° C 65% 1012.5 hPa 0 mm - 0 W/m² -
1788573111 29.44° C 63% 1012.5 hPa 0 mm - 0 W/m² -
1788572810 29.44° C 62% 1012.4 hPa 0 mm - 0 W/m² -
1788572506 29.44° C 62% 1012.3 hPa 0 mm - 0 W/m² -
1788572202 29.44° C 62% 1012.2 hPa 0 mm - 0 W/m² -
1788571898 29.44° C 62% 1012.2 hPa 0 mm - 0 W/m² -
1788571598 29.44° C 62% 1012.3 hPa 0 mm - 0 W/m² -
1788571294 28.89° C 62% 1012.1 hPa 0 mm - 0 W/m² -
1788570990 29.44° C 63% 1012.1 hPa 0 mm - 0 W/m² -
1788570685 30° C 61% 1012 hPa 0 mm - 0 W/m² -
1788570380 30.56° C 59% 1012 hPa 0 mm - 0 W/m² -
1788570076 31.11° C 57% 1011.9 hPa 0 mm - 0 W/m² -
1788569772 31.11° C 56% 1011.9 hPa 0 mm - 0 W/m² -
1788569468 31.11° C 56% 1012.1 hPa 0 mm - 1 W/m² -
1788569168 31.67° C 55% 1011.8 hPa 0 mm - 2 W/m² -
1788568863 32.22° C 54% 1011.9 hPa 0 mm - 4 W/m² -
1788568558 32.22° C 53% 1012 hPa 0 mm - 7 W/m² -
1788568254 32.78° C 52% 1011.9 hPa 0 mm - 11 W/m² -

* Rain latest hour (hover to see other rain measurements)
** Current wind speed in m/s (hover to see current wind gust speed)